Location: Unspecified
(0.0000°N, 0.0000°E)
Time: 06:40:29
(UTC+00:00)

Envisat - Pass Details

Date: 16 October 2019
Orbit: 764 x 766 km, 98.1° (Epoch: 14 October)

Event Time Altitude Azimuth Distance (km) Brightness Sun altitude
Rises 19:45:41 0° 208° (SSW) 3,229 6.7 -29.6°
Reaches altitude 10° 19:50:07 10° 244° (WSW) 2,299 6.3 -30.7°
Maximum altitude 19:51:14 11° 257° (WSW) 2,251 6.3 -31.0°
Drops below altitude 10° 19:52:20 10° 270° (W) 2,297 6.3 -31.3°
Sets 19:56:47 0° 307° (NW) 3,218 6.8 -32.3°
